{"data":{"norad_id":57525,"intl_designator":"2023-115E","name":"STARLINK-30253","alt_names":[],"object_type":"PAYLOAD","status":"ACTIVE","operator":null,"country":"US","launch_date":"2023-08-08","launch_site_code":"AFWTR","launch_vehicle":null,"mission":null,"orbit_class":"UNKNOWN","rcs_meters":null,"size_class":null,"mass_kg":null,"dimensions":null,"purposes":["comms"],"wikipedia_slug":null,"has_3d_model":false,"image_url":null,"decayed_at":null,"tle_current":{"epoch":"2026-05-25T02:05:32.688960Z","epoch_age_seconds":77904,"freshness":"FRESH","line1":"1 57525U 23115E   26145.08718390  .00000319  00000+0  21102-4 0  9992","line2":"2 57525  43.0015 290.2907 0001191 300.1879  59.8855 15.27582341154039","mean_motion":15.27582341,"eccentricity":0.0001191,"inclination_deg":43.0015,"raan_deg":290.2907,"arg_perigee_deg":300.1879,"mean_anomaly_deg":59.8855,"bstar":2.1102e-5,"rev_number":15403,"period_min":94.26660425109,"perigee_km":482.22491982326,"apogee_km":483.85925268161,"semimajor_km":6861.1790862524,"source":"CELESTRAK","updated_at":"2026-05-25T13:38:18.332435Z"}}}